SCP
0 0 0 0 0 0 0 0 0 0 0 0 0 0 0 0 0 0 0 0 0 0
0 0 0 0 0 0 0 0 0 0 0 0 0 0 0 0 0 0 0 0 0 0
0 0 0 0 0 0 0 0 0 0 0 0 0 0 0 0 0 0 0 0 0 0
0 0 0 0 0 0 0 0 0 0 0 0 0 0 0 0 0 0 0 0 0 0
0 0 0 0 0 0 0 0 0 0 0 0 0 0 0 0 0 0 0 0 0 0
0 0 0 0 0 0 0 0 0 0 0 0 0 0 0 0 0 0 0 0 0 0
0 0 0 0 0 0 0 0 0 0 0 0 0 0 0 0 0 0 0 0 0 0
0 0 0 0 0 0 0 0 0 0 0 0 0 0 0 0 0 0 0 0 0 0
0 0 0 0 0 0 0 0 0 0 0 0 0 0 0 0 0 0 0 0 0 0
0 0 0 0 0 0 0 0 0 0 0 0 0 0 0 0 0 0 0 0 0 0
0 0 0 0 0 0 0 0 0 0 0 0 0 0 0 0 0 0 0 0 0 0
0 0 0 0 0 0 0 0 0 0 0 0 0 0 0 0 0 0 0 0 0 0
0 0 0 0 0 0 0 -0 -0 -0 0 0 0 0 0 0 0 0 0 0 0 0
0 0 0 0 0 -0 -0 -0 0 0 0 0 0 0 0 0 0 0 0 0 0 0
Wind_Speed_500mb
110 104 98 99 93 93 91 81 74 68 63 60 54 50 44 41 34 30 25 27 26 19
113 105 99 98 98 98 91 87 77 65 62 56 48 43 37 31 30 37 41 34 24 16
98 106 97 98 100 97 92 79 74 65 57 52 45 42 39 46 51 42 35 26 25 23
103 88 85 89 94 92 85 77 71 65 56 53 55 50 53 49 45 33 36 32 26 23
81 79 77 79 79 75 76 72 65 63 64 62 57 55 52 46 39 33 32 30 25 19
75 66 62 68 70 66 71 72 74 71 67 67 64 57 45 37 36 32 28 25 20 12
70 67 63 61 71 77 78 82 74 71 68 63 60 49 44 39 33 26 23 18 14 7
68 65 64 74 83 86 84 81 75 69 67 58 48 45 42 36 30 24 18 14 7 2
74 78 90 97 97 92 85 75 77 70 61 55 47 41 36 29 25 21 14 8 2 7
103 110 110 105 99 88 84 77 67 64 57 51 45 39 32 26 20 15 10 6 7 8
114 111 103 95 88 85 75 67 62 57 52 46 40 33 26 21 16 10 7 3 9 13
105 102 97 93 82 73 68 62 56 49 43 36 35 28 21 17 11 4 3 6 12 16
95 95 89 81 74 69 59 56 49 45 37 30 28 25 18 11 5 2 6 10 13 21
83 78 74 70 62 57 52 48 44 39 35 30 23 18 11 5 2 7 9 10 14 18
Wind_Direction_500mb
222 224 225 219 215 213 214 215 213 213 218 214 208 211 200 189 187 198 211 150 125 136
220 222 223 217 213 210 208 208 201 204 207 199 196 189 185 193 191 153 145 133 133 164
223 221 219 218 210 203 201 198 199 193 189 178 176 175 169 156 151 139 122 137 160 161
213 212 211 212 205 201 193 187 187 182 171 167 161 159 156 139 121 137 153 151 159 165
208 211 205 206 199 191 183 174 166 161 159 152 153 143 131 122 143 156 155 156 159 164
208 206 205 190 184 169 159 152 151 151 151 146 139 124 130 144 152 158 159 161 153 152
195 194 188 175 160 155 151 145 145 147 143 133 122 137 146 153 157 158 156 152 157 155
177 175 160 150 146 145 146 147 149 138 127 128 144 149 151 153 155 158 160 161 165 154
154 148 144 144 144 145 146 143 135 132 138 143 148 149 150 153 153 161 162 161 173 261
143 142 142 144 146 144 137 134 142 140 143 148 153 153 148 151 154 154 153 190 256 303
140 140 142 141 138 133 136 146 143 143 148 151 147 144 142 143 153 167 200 304 320 315
140 138 138 133 132 138 145 145 144 143 143 151 140 140 142 155 171 187 310 309 310 309
137 133 130 130 143 144 146 143 142 144 141 140 143 148 161 156 126 278 287 299 302 328
126 128 135 140 141 144 146 146 145 141 145 152 153 148 131 117 166 265 293 313 314 314
Wind_Speed_850mb
110 104 98 99 93 93 91 81 74 68 63 60 54 50 44 41 34 30 25 27 26 19
113 105 99 98 98 98 91 87 77 65 62 56 48 43 37 31 30 37 41 34 24 16
98 106 97 98 100 97 92 79 74 65 57 52 45 42 39 46 51 42 35 26 25 23
103 88 85 89 94 92 85 77 71 65 56 53 55 50 53 49 45 33 36 32 26 23
81 79 77 79 79 75 76 72 65 63 64 62 57 55 52 46 39 33 32 30 25 19
75 66 62 68 70 66 71 72 74 71 67 67 64 57 45 37 36 32 28 25 20 12
70 67 63 61 71 77 78 82 74 71 68 63 60 49 44 39 33 26 23 18 14 7
68 65 64 74 83 86 84 81 75 69 67 58 48 45 42 36 30 24 18 14 7 2
74 78 90 97 97 92 85 75 77 70 61 55 47 41 36 29 25 21 14 8 2 7
103 110 110 105 99 88 84 77 67 64 57 51 45 39 32 26 20 15 10 6 7 8
114 111 103 95 88 85 75 67 62 57 52 46 40 33 26 21 16 10 7 3 9 13
105 102 97 93 82 73 68 62 56 49 43 36 35 28 21 17 11 4 3 6 12 16
95 95 89 81 74 69 59 56 49 45 37 30 28 25 18 11 5 2 6 10 13 21
83 78 74 70 62 57 52 48 44 39 35 30 23 18 11 5 2 7 9 10 14 18
Wind_Direction_850mb
222 224 225 219 215 213 214 215 213 213 218 214 208 211 200 189 187 198 211 150 125 136
220 222 223 217 213 210 208 208 201 204 207 199 196 189 185 193 191 153 145 133 133 164
223 221 219 218 210 203 201 198 199 193 189 178 176 175 169 156 151 139 122 137 160 161
213 212 211 212 205 201 193 187 187 182 171 167 161 159 156 139 121 137 153 151 159 165
208 211 205 206 199 191 183 174 166 161 159 152 153 143 131 122 143 156 155 156 159 164
208 206 205 190 184 169 159 152 151 151 151 146 139 124 130 144 152 158 159 161 153 152
195 194 188 175 160 155 151 145 145 147 143 133 122 137 146 153 157 158 156 152 157 155
177 175 160 150 146 145 146 147 149 138 127 128 144 149 151 153 155 158 160 161 165 154
154 148 144 144 144 145 146 143 135 132 138 143 148 149 150 153 153 161 162 161 173 261
143 142 142 144 146 144 137 134 142 140 143 148 153 153 148 151 154 154 153 190 256 303
140 140 142 141 138 133 136 146 143 143 148 151 147 144 142 143 153 167 200 304 320 315
140 138 138 133 132 138 145 145 144 143 143 151 140 140 142 155 171 187 310 309 310 309
137 133 130 130 143 144 146 143 142 144 141 140 143 148 161 156 126 278 287 299 302 328
126 128 135 140 141 144 146 146 145 141 145 152 153 148 131 117 166 265 293 313 314 314